147  
ASUS42 KRAH 192110  
RWRRAH  
NORTH CAROLINA WEATHER ROUNDUP  
NATIONAL WEATHER SERVICE RALEIGH NC  
400 PM EST WED FEB 19 2020  
 
NOTE: "FAIR" INDICATES FEW OR NO CLOUDS BELOW 12,000 FEET WITH NO  
SIGNIFICANT WEATHER AND/OR S TO VISIBILITY
.  
 
NCZ001-053-055-056-065-067-192200-  
WESTERN NORTH CAROLINA  
 
CITY SKY/WX TMP DP RH WIND PRES REMARKS
 
ASHEVILLE CLOUDY 48 32 53 NW9 30.31R  
JEFFERSON FAIR 42 16 33 E6 30.30F  
MORGANTON FAIR 53 22 28 E3 30.36R  
HICKORY FAIR 51 25 36 E8 30.32S  
WILKESBORO NOT AVBL  
RUTHERFORDTON FAIR 52 28 40 E8 30.32S  
MOUNT AIRY FAIR 53 18 25 N3 30.36S  
BOONE N/A 45 22 40 W3 30.30S  

 
 
NCZ021-022-025-041-071-084-088-192200-  
CENTRAL NORTH CAROLINA  
 
CITY SKY/WX TMP DP RH WIND PRES REMARKS
 
CHARLOTTE CLOUDY 51 33 50 NE12 30.34S  
GREENSBORO PTSUNNY 51 27 39 NE7 30.32F  
WINSTON-SALEM PTSUNNY 51 24 34 NE6 30.35R  
RALEIGH-DURHAM CLOUDY 48 39 71 CALM 30.35S  
FORT BRAGG CLOUDY 48 40 72 NE7 30.33R  
FAYETTEVILLE CLOUDY 50 41 71 NE10 30.32F  
BURLINGTON FAIR 53 40 61 NE5 30.33F  
ROXBORO CLOUDY 50 36 57 E7 30.36S  
HENDERSON FAIR 48 31 51 NE5 30.35R  
LOUISBURG FAIR 46 32 57 NE5 30.38R  
LAURINBURG CLOUDY 50 42 74 NE9 30.34R  

 
 
NCZ011-015-027-028-043-044-047-080-103-192200-  
NORTHEASTERN NORTH CAROLINA  
 
CITY SKY/WX TMP DP RH WIND PRES REMARKS
 
ROCKY MT-WILSO CLOUDY 50 28 42 N8 30.36R  
GREENVILLE FAIR 50 36 57 NE9 30.34F  
WASHINGTON CLOUDY 49 36 60 NE6 30.35R  
ELIZABETH CITY CLOUDY 50 30 46 N9 30.35R  
MANTEO CLOUDY 47 34 62 NE13G21 30.34R  
CAPE HATTERAS CLOUDY 50 40 68 NE10G21 30.30R  

 
 
NCZ078-087-090-091-093-098-101-192200-  
SOUTHEASTERN NORTH CAROLINA  
 
CITY SKY/WX TMP DP RH WIND PRES REMARKS
 
GOLDSBORO CLOUDY 49 29 46 NE14 30.32S  
KINSTON CLOUDY 50 36 57 NE8 30.34R  
KENANSVILLE CLOUDY 50 36 57 NE6 30.34R  
NEW BERN CLOUDY 50 39 66 N12 30.34R  
CHERRY POINT CLOUDY 52 36 54 N12 30.33R  
BEAUFORT CLOUDY 50 36 58 NE13G24 30.31R  
JACKSONVILLE CLOUDY 51 41 68 N12 30.31R  
WILMINGTON CLOUDY 50 43 77 N13 30.30S  

 
 
 
 
CLICK HERE TO GO TO PREVIOUS BULLETINS.

The Nexlab NC Page Main Text Page